BCCSAT-1 (48041 NORAD) Tracking and Keplerian Element Data

This shows tracking and keplerian element data for the satellite.

Feedback or suggestion? Click here.




ElementValue
Catalog48041
NameBCCSAT-1
Epoch Orbit1267
Epoch Day173.90872872
Epoch Year2021
RAAN76.0723
Inclination97.5589
Eccentricity0.0014456
Argument of Perigee286.0785
Mean Anonmoly73.8851
Mean Motion15.06538234
Decay Rate4.6E-06
L11 48041U 21022AK 21173.90872872 .00000460 00000-0 35267-4 0 9998
L22 48041 97.5589 76.0723 0014456 286.0785 73.8851 15.06538234 12678

Live tracking and technical data element details for BCCSAT-1 (NORAD 48041). BCCSAT-1 can be tracked NOW for your location showing map with azimuth and elevation plus other details from your city location.

Track the satellite on the map from your city or location and see movement details for azimuth, elevation, latitude, longitude, range, height, and movement on the map or in text.







IsCatalogInMostPopularTable: catalog: 48041, numindb: 37
Update: records affected: 1



GetName: 48041 BCCSAT-1

Hit Count: updated at: Thu, 24 Jun 2021 03:10:41 GMT